owner,sensor,date,latitude,longitude,vertical_datum,sea_water_temperature,qcFlag
Shell,ioos:station:wmo:42400:2,2022-08-01T00:03:00Z,28.5740,-87.9340,24.0,29.3,11111222
Shell,ioos:station:wmo:42400:2,2022-08-01T00:13:00Z,28.5740,-87.9340,24.0,29.3,11111222
Shell,ioos:station:wmo:42400:2,2022-08-01T00:23:00Z,28.5740,-87.9340,24.0,29.4,11111222
Shell,ioos:station:wmo:42400:2,2022-08-01T00:33:00Z,28.5740,-87.9340,24.0,29.6,11111222
Shell,ioos:station:wmo:42400:2,2022-08-01T00:43:00Z,28.5740,-87.9340,24.0,29.6,11111222
Shell,ioos:station:wmo:42400:2,2022-08-01T00:53:00Z,28.5740,-87.9340,24.0,29.5,11111222
Shell,ioos:station:wmo:42400:2,2022-08-01T01:03:00Z,28.5740,-87.9340,24.0,29.3,11111222
Shell,ioos:station:wmo:42400:2,2022-08-01T01:13:00Z,28.5740,-87.9340,24.0,29.3,11111222
Shell,ioos:station:wmo:42400:2,2022-08-01T01:23:00Z,28.5740,-87.9340,24.0,29.4,11111222
Shell,ioos:station:wmo:42400:2,2022-08-01T01:33:00Z,28.5740,-87.9340,24.0,29.4,11111222
Shell,ioos:station:wmo:42400:2,2022-08-01T01:43:00Z,28.5740,-87.9340,24.0,29.5,11111222
Shell,ioos:station:wmo:42400:2,2022-08-01T01:53:00Z,28.5740,-87.9340,24.0,29.4,11111222
Shell,ioos:station:wmo:42400:2,2022-08-01T02:03:00Z,28.5740,-87.9340,24.0,29.5,11111222
Shell,ioos:station:wmo:42400:2,2022-08-01T02:13:00Z,28.5740,-87.9340,24.0,29.6,11111222
Shell,ioos:station:wmo:42400:2,2022-08-01T02:23:00Z,28.5740,-87.9340,24.0,29.6,11111222
Shell,ioos:station:wmo:42400:2,2022-08-01T02:33:00Z,28.5740,-87.9340,24.0,29.7,11111222
Shell,ioos:station:wmo:42400:2,2022-08-01T02:43:00Z,28.5740,-87.9340,24.0,29.7,11111222
Shell,ioos:station:wmo:42400:2,2022-08-01T02:53:00Z,28.5740,-87.9340,24.0,29.7,11111222
Shell,ioos:station:wmo:42400:2,2022-08-01T03:03:00Z,28.5740,-87.9340,24.0,29.8,11111222
Shell,ioos:station:wmo:42400:2,2022-08-01T03:13:00Z,28.5740,-87.9340,24.0,29.7,11111222
Shell,ioos:station:wmo:42400:2,2022-08-01T03:23:00Z,28.5740,-87.9340,24.0,29.7,11111222
Shell,ioos:station:wmo:42400:2,2022-08-01T03:33:00Z,28.5740,-87.9340,24.0,29.8,11111222
Shell,ioos:station:wmo:42400:2,2022-08-01T03:43:00Z,28.5740,-87.9340,24.0,29.7,11111222
Shell,ioos:station:wmo:42400:2,2022-08-01T03:53:00Z,28.5740,-87.9340,24.0,29.7,11111222
Shell,ioos:station:wmo:42400:2,2022-08-01T04:03:00Z,28.5740,-87.9340,24.0,29.7,11111222
Shell,ioos:station:wmo:42400:2,2022-08-01T04:13:00Z,28.5740,-87.9340,24.0,29.8,11111222
Shell,ioos:station:wmo:42400:2,2022-08-01T04:23:00Z,28.5740,-87.9340,24.0,29.6,11111222
Shell,ioos:station:wmo:42400:2,2022-08-01T04:33:00Z,28.5740,-87.9340,24.0,29.6,11111222
Shell,ioos:station:wmo:42400:2,2022-08-01T04:43:00Z,28.5740,-87.9340,24.0,29.6,11111222
Shell,ioos:station:wmo:42400:2,2022-08-01T04:53:00Z,28.5740,-87.9340,24.0,29.6,11111222
Shell,ioos:station:wmo:42400:2,2022-08-01T05:03:00Z,28.5740,-87.9340,24.0,29.6,11111222
Shell,ioos:station:wmo:42400:2,2022-08-01T05:13:00Z,28.5740,-87.9340,24.0,29.6,11111222
Shell,ioos:station:wmo:42400:2,2022-08-01T05:23:00Z,28.5740,-87.9340,24.0,29.6,11111222
Shell,ioos:station:wmo:42400:2,2022-08-01T05:33:00Z,28.5740,-87.9340,24.0,29.6,11111222
Shell,ioos:station:wmo:42400:2,2022-08-01T05:43:00Z,28.5740,-87.9340,24.0,29.6,11111222
Shell,ioos:station:wmo:42400:2,2022-08-01T05:53:00Z,28.5740,-87.9340,24.0,29.6,11111222
Shell,ioos:station:wmo:42400:2,2022-08-01T06:03:00Z,28.5740,-87.9340,24.0,29.7,11111222
Shell,ioos:station:wmo:42400:2,2022-08-01T06:13:00Z,28.5740,-87.9340,24.0,29.8,11111222
Shell,ioos:station:wmo:42400:2,2022-08-01T06:23:00Z,28.5740,-87.9340,24.0,29.9,11111222
Shell,ioos:station:wmo:42400:2,2022-08-01T06:33:00Z,28.5740,-87.9340,24.0,29.9,11111222
Shell,ioos:station:wmo:42400:2,2022-08-01T06:43:00Z,28.5740,-87.9340,24.0,29.9,11111222
Shell,ioos:station:wmo:42400:2,2022-08-01T06:53:00Z,28.5740,-87.9340,24.0,30.0,11111222
Shell,ioos:station:wmo:42400:2,2022-08-01T07:04:00Z,28.5740,-87.9340,24.0,29.6,11111222
Shell,ioos:station:wmo:42400:2,2022-08-01T07:14:00Z,28.5740,-87.9340,24.0,29.5,11111222
Shell,ioos:station:wmo:42400:2,2022-08-01T07:24:00Z,28.5740,-87.9340,24.0,29.8,11111222
Shell,ioos:station:wmo:42400:2,2022-08-01T07:34:00Z,28.5740,-87.9340,24.0,30.0,11111222
Shell,ioos:station:wmo:42400:2,2022-08-01T07:44:00Z,28.5740,-87.9340,24.0,30.0,11111222
Shell,ioos:station:wmo:42400:2,2022-08-01T07:54:00Z,28.5740,-87.9340,24.0,30.0,11111222
Shell,ioos:station:wmo:42400:2,2022-08-01T08:04:00Z,28.5740,-87.9340,24.0,30.0,11111222
Shell,ioos:station:wmo:42400:2,2022-08-01T08:14:00Z,28.5740,-87.9340,24.0,30.0,11111222
Shell,ioos:station:wmo:42400:2,2022-08-01T08:24:00Z,28.5740,-87.9340,24.0,30.1,11111222
Shell,ioos:station:wmo:42400:2,2022-08-01T08:34:00Z,28.5740,-87.9340,24.0,30.0,11111222
Shell,ioos:station:wmo:42400:2,2022-08-01T08:44:00Z,28.5740,-87.9340,24.0,29.8,11111222
Shell,ioos:station:wmo:42400:2,2022-08-01T08:54:00Z,28.5740,-87.9340,24.0,29.9,11111222
Shell,ioos:station:wmo:42400:2,2022-08-01T09:04:00Z,28.5740,-87.9340,24.0,30.0,11111222
Shell,ioos:station:wmo:42400:2,2022-08-01T09:14:00Z,28.5740,-87.9340,24.0,29.8,11111222
Shell,ioos:station:wmo:42400:2,2022-08-01T09:24:00Z,28.5740,-87.9340,24.0,29.6,11111222
Shell,ioos:station:wmo:42400:2,2022-08-01T09:34:00Z,28.5740,-87.9340,24.0,29.7,11111222
Shell,ioos:station:wmo:42400:2,2022-08-01T09:44:00Z,28.5740,-87.9340,24.0,29.9,11111222
Shell,ioos:station:wmo:42400:2,2022-08-01T09:54:00Z,28.5740,-87.9340,24.0,29.9,11111222
Shell,ioos:station:wmo:42400:2,2022-08-01T10:04:00Z,28.5740,-87.9340,24.0,29.7,11111222
Shell,ioos:station:wmo:42400:2,2022-08-01T10:14:00Z,28.5740,-87.9340,24.0,29.5,11111222
Shell,ioos:station:wmo:42400:2,2022-08-01T10:24:00Z,28.5740,-87.9340,24.0,29.4,11111222
Shell,ioos:station:wmo:42400:2,2022-08-01T10:34:00Z,28.5740,-87.9340,24.0,29.4,11111222
Shell,ioos:station:wmo:42400:2,2022-08-01T10:44:00Z,28.5740,-87.9340,24.0,29.4,11111222
Shell,ioos:station:wmo:42400:2,2022-08-01T10:54:00Z,28.5740,-87.9340,24.0,29.5,11111222
Shell,ioos:station:wmo:42400:2,2022-08-01T11:04:00Z,28.5740,-87.9340,24.0,29.5,11111222
Shell,ioos:station:wmo:42400:2,2022-08-01T11:14:00Z,28.5740,-87.9340,24.0,29.5,11111222
Shell,ioos:station:wmo:42400:2,2022-08-01T11:24:00Z,28.5740,-87.9340,24.0,29.6,11111222
Shell,ioos:station:wmo:42400:2,2022-08-01T11:34:00Z,28.5740,-87.9340,24.0,29.7,11111222
Shell,ioos:station:wmo:42400:2,2022-08-01T11:44:00Z,28.5740,-87.9340,24.0,29.8,11111222
Shell,ioos:station:wmo:42400:2,2022-08-01T11:54:00Z,28.5740,-87.9340,24.0,29.9,11111222
Shell,ioos:station:wmo:42400:2,2022-08-01T12:04:00Z,28.5740,-87.9340,24.0,29.9,11111222
Shell,ioos:station:wmo:42400:2,2022-08-01T12:14:00Z,28.5740,-87.9340,24.0,29.9,11111222
Shell,ioos:station:wmo:42400:2,2022-08-01T12:24:00Z,28.5740,-87.9340,24.0,29.9,11111222
Shell,ioos:station:wmo:42400:2,2022-08-01T12:34:00Z,28.5740,-87.9340,24.0,29.9,11111222
Shell,ioos:station:wmo:42400:2,2022-08-01T12:44:00Z,28.5740,-87.9340,24.0,30.0,11111222
Shell,ioos:station:wmo:42400:2,2022-08-01T12:54:00Z,28.5740,-87.9340,24.0,30.0,11111222
Shell,ioos:station:wmo:42400:2,2022-08-01T13:04:00Z,28.5740,-87.9340,24.0,30.0,11111222
Shell,ioos:station:wmo:42400:2,2022-08-01T13:14:00Z,28.5740,-87.9340,24.0,30.0,11111222
Shell,ioos:station:wmo:42400:2,2022-08-01T13:24:00Z,28.5740,-87.9340,24.0,30.0,11111222
Shell,ioos:station:wmo:42400:2,2022-08-01T13:34:00Z,28.5740,-87.9340,24.0,30.0,11111222
Shell,ioos:station:wmo:42400:2,2022-08-01T13:44:00Z,28.5740,-87.9340,24.0,30.0,11111222
Shell,ioos:station:wmo:42400:2,2022-08-01T13:54:00Z,28.5740,-87.9340,24.0,30.0,11111222
Shell,ioos:station:wmo:42400:2,2022-08-01T14:04:00Z,28.5740,-87.9340,24.0,30.1,11111222
Shell,ioos:station:wmo:42400:2,2022-08-01T14:14:00Z,28.5740,-87.9340,24.0,30.1,11111222
Shell,ioos:station:wmo:42400:2,2022-08-01T14:25:00Z,28.5740,-87.9340,24.0,30.1,11111222
Shell,ioos:station:wmo:42400:2,2022-08-01T14:35:00Z,28.5740,-87.9340,24.0,30.0,11111222
Shell,ioos:station:wmo:42400:2,2022-08-01T14:45:00Z,28.5740,-87.9340,24.0,30.0,11111222
Shell,ioos:station:wmo:42400:2,2022-08-01T14:55:00Z,28.5740,-87.9340,24.0,30.0,11111222
Shell,ioos:station:wmo:42400:2,2022-08-01T15:05:00Z,28.5740,-87.9340,24.0,30.0,11111222
Shell,ioos:station:wmo:42400:2,2022-08-01T15:15:00Z,28.5740,-87.9340,24.0,30.0,11111222
Shell,ioos:station:wmo:42400:2,2022-08-01T15:25:00Z,28.5740,-87.9340,24.0,29.9,11111222
Shell,ioos:station:wmo:42400:2,2022-08-01T15:35:00Z,28.5740,-87.9340,24.0,29.9,11111222
Shell,ioos:station:wmo:42400:2,2022-08-01T15:45:00Z,28.5740,-87.9340,24.0,30.0,11111222
Shell,ioos:station:wmo:42400:2,2022-08-01T15:55:00Z,28.5740,-87.9340,24.0,30.0,11111222
Shell,ioos:station:wmo:42400:2,2022-08-01T16:05:00Z,28.5740,-87.9340,24.0,29.9,11111222
Shell,ioos:station:wmo:42400:2,2022-08-01T16:15:00Z,28.5740,-87.9340,24.0,29.8,11111222
Shell,ioos:station:wmo:42400:2,2022-08-01T16:25:00Z,28.5740,-87.9340,24.0,29.7,11111222
Shell,ioos:station:wmo:42400:2,2022-08-01T16:35:00Z,28.5740,-87.9340,24.0,29.7,11111222
Shell,ioos:station:wmo:42400:2,2022-08-01T16:45:00Z,28.5740,-87.9340,24.0,29.7,11111222
Shell,ioos:station:wmo:42400:2,2022-08-01T16:55:00Z,28.5740,-87.9340,24.0,29.6,11111222
Shell,ioos:station:wmo:42400:2,2022-08-01T17:05:00Z,28.5740,-87.9340,24.0,29.6,11111222
Shell,ioos:station:wmo:42400:2,2022-08-01T17:15:00Z,28.5740,-87.9340,24.0,29.7,11111222
Shell,ioos:station:wmo:42400:2,2022-08-01T17:25:00Z,28.5740,-87.9340,24.0,29.8,11111222
Shell,ioos:station:wmo:42400:2,2022-08-01T17:35:00Z,28.5740,-87.9340,24.0,29.7,11111222
Shell,ioos:station:wmo:42400:2,2022-08-01T17:45:00Z,28.5740,-87.9340,24.0,29.6,11111222
Shell,ioos:station:wmo:42400:2,2022-08-01T17:55:00Z,28.5740,-87.9340,24.0,29.6,11111222
Shell,ioos:station:wmo:42400:2,2022-08-01T18:05:00Z,28.5740,-87.9340,24.0,29.6,11111222
Shell,ioos:station:wmo:42400:2,2022-08-01T18:15:00Z,28.5740,-87.9340,24.0,29.6,11111222
Shell,ioos:station:wmo:42400:2,2022-08-01T18:25:00Z,28.5740,-87.9340,24.0,29.4,11111222
Shell,ioos:station:wmo:42400:2,2022-08-01T18:35:00Z,28.5740,-87.9340,24.0,29.3,11111222
Shell,ioos:station:wmo:42400:2,2022-08-01T18:45:00Z,28.5740,-87.9340,24.0,29.4,11111222
Shell,ioos:station:wmo:42400:2,2022-08-01T18:55:00Z,28.5740,-87.9340,24.0,29.4,11111222
Shell,ioos:station:wmo:42400:2,2022-08-01T19:05:00Z,28.5740,-87.9340,24.0,29.3,11111222
Shell,ioos:station:wmo:42400:2,2022-08-01T19:15:00Z,28.5740,-87.9340,24.0,29.3,11111222
Shell,ioos:station:wmo:42400:2,2022-08-01T19:25:00Z,28.5740,-87.9340,24.0,29.2,11111222
Shell,ioos:station:wmo:42400:2,2022-08-01T19:35:00Z,28.5740,-87.9340,24.0,29.0,11111222
Shell,ioos:station:wmo:42400:2,2022-08-01T19:45:00Z,28.5740,-87.9340,24.0,28.8,11111222
Shell,ioos:station:wmo:42400:2,2022-08-01T19:55:00Z,28.5740,-87.9340,24.0,28.8,11111222
Shell,ioos:station:wmo:42400:2,2022-08-01T20:05:00Z,28.5740,-87.9340,24.0,28.7,11111222
Shell,ioos:station:wmo:42400:2,2022-08-01T20:15:00Z,28.5740,-87.9340,24.0,28.8,11111222
Shell,ioos:station:wmo:42400:2,2022-08-01T20:25:00Z,28.5740,-87.9340,24.0,28.7,11111222
Shell,ioos:station:wmo:42400:2,2022-08-01T20:35:00Z,28.5740,-87.9340,24.0,28.8,11111222
Shell,ioos:station:wmo:42400:2,2022-08-01T20:45:00Z,28.5740,-87.9340,24.0,28.6,11111222
Shell,ioos:station:wmo:42400:2,2022-08-01T20:55:00Z,28.5740,-87.9340,24.0,28.6,11111222
Shell,ioos:station:wmo:42400:2,2022-08-01T21:05:00Z,28.5740,-87.9340,24.0,28.6,11111222
Shell,ioos:station:wmo:42400:2,2022-08-01T21:15:00Z,28.5740,-87.9340,24.0,28.5,11111222
Shell,ioos:station:wmo:42400:2,2022-08-01T21:25:00Z,28.5740,-87.9340,24.0,28.4,11111222
Shell,ioos:station:wmo:42400:2,2022-08-01T21:35:00Z,28.5740,-87.9340,24.0,28.3,11111222
Shell,ioos:station:wmo:42400:2,2022-08-01T21:46:00Z,28.5740,-87.9340,24.0,28.2,11111222
Shell,ioos:station:wmo:42400:2,2022-08-01T21:56:00Z,28.5740,-87.9340,24.0,28.5,11111222
Shell,ioos:station:wmo:42400:2,2022-08-01T22:06:00Z,28.5740,-87.9340,24.0,28.9,11111222
Shell,ioos:station:wmo:42400:2,2022-08-01T22:16:00Z,28.5740,-87.9340,24.0,28.9,11111222
Shell,ioos:station:wmo:42400:2,2022-08-01T22:26:00Z,28.5740,-87.9340,24.0,29.0,11111222
Shell,ioos:station:wmo:42400:2,2022-08-01T22:36:00Z,28.5740,-87.9340,24.0,28.9,11111222
Shell,ioos:station:wmo:42400:2,2022-08-01T22:46:00Z,28.5740,-87.9340,24.0,28.9,11111222
Shell,ioos:station:wmo:42400:2,2022-08-01T22:56:00Z,28.5740,-87.9340,24.0,29.0,11111222
Shell,ioos:station:wmo:42400:2,2022-08-01T23:06:00Z,28.5740,-87.9340,24.0,28.9,11111222
Shell,ioos:station:wmo:42400:2,2022-08-01T23:16:00Z,28.5740,-87.9340,24.0,28.9,11111222
Shell,ioos:station:wmo:42400:2,2022-08-01T23:26:00Z,28.5740,-87.9340,24.0,28.9,11111222
Shell,ioos:station:wmo:42400:2,2022-08-01T23:36:00Z,28.5740,-87.9340,24.0,29.1,11111222
Shell,ioos:station:wmo:42400:2,2022-08-01T23:46:00Z,28.5740,-87.9340,24.0,29.1,11111222
Shell,ioos:station:wmo:42400:2,2022-08-01T23:56:00Z,28.5740,-87.9340,24.0,29.0,11111222
Shell,ioos:station:wmo:42400:2,2022-08-02T00:06:00Z,28.5740,-87.9340,24.0,28.9,11111222
Shell,ioos:station:wmo:42400:2,2022-08-02T00:16:00Z,28.5740,-87.9340,24.0,28.9,11111222
Shell,ioos:station:wmo:42400:2,2022-08-02T00:26:00Z,28.5740,-87.9340,24.0,29.0,11111222
Shell,ioos:station:wmo:42400:2,2022-08-02T00:36:00Z,28.5740,-87.9340,24.0,28.9,11111222
Shell,ioos:station:wmo:42400:2,2022-08-02T00:46:00Z,28.5740,-87.9340,24.0,28.8,11111222
Shell,ioos:station:wmo:42400:2,2022-08-02T00:56:00Z,28.5740,-87.9340,24.0,28.9,11111222
Shell,ioos:station:wmo:42400:2,2022-08-02T01:06:00Z,28.5740,-87.9340,24.0,28.9,11111222
Shell,ioos:station:wmo:42400:2,2022-08-02T01:16:00Z,28.5740,-87.9340,24.0,28.8,11111222
Shell,ioos:station:wmo:42400:2,2022-08-02T01:26:00Z,28.5740,-87.9340,24.0,28.9,11111222
Shell,ioos:station:wmo:42400:2,2022-08-02T01:36:00Z,28.5740,-87.9340,24.0,28.9,11111222
Shell,ioos:station:wmo:42400:2,2022-08-02T01:46:00Z,28.5740,-87.9340,24.0,29.0,11111222
Shell,ioos:station:wmo:42400:2,2022-08-02T01:56:00Z,28.5740,-87.9340,24.0,29.1,11111222
Shell,ioos:station:wmo:42400:2,2022-08-02T02:06:00Z,28.5740,-87.9340,24.0,29.1,11111222
Shell,ioos:station:wmo:42400:2,2022-08-02T02:16:00Z,28.5740,-87.9340,24.0,29.1,11111222
Shell,ioos:station:wmo:42400:2,2022-08-02T02:26:00Z,28.5740,-87.9340,24.0,29.1,11111222
Shell,ioos:station:wmo:42400:2,2022-08-02T02:36:00Z,28.5740,-87.9340,24.0,29.1,11111222
Shell,ioos:station:wmo:42400:2,2022-08-02T02:46:00Z,28.5740,-87.9340,24.0,29.1,11111222
Shell,ioos:station:wmo:42400:2,2022-08-02T02:56:00Z,28.5740,-87.9340,24.0,29.1,11111222
Shell,ioos:station:wmo:42400:2,2022-08-02T03:06:00Z,28.5740,-87.9340,24.0,29.1,11111222
Shell,ioos:station:wmo:42400:2,2022-08-02T03:16:00Z,28.5740,-87.9340,24.0,29.1,11111222
Shell,ioos:station:wmo:42400:2,2022-08-02T03:26:00Z,28.5740,-87.9340,24.0,29.3,11111222
Shell,ioos:station:wmo:42400:2,2022-08-02T03:36:00Z,28.5740,-87.9340,24.0,29.4,11111222
Shell,ioos:station:wmo:42400:2,2022-08-02T03:46:00Z,28.5740,-87.9340,24.0,29.2,11111222
Shell,ioos:station:wmo:42400:2,2022-08-02T03:56:00Z,28.5740,-87.9340,24.0,29.0,11111222
Shell,ioos:station:wmo:42400:2,2022-08-02T04:06:00Z,28.5740,-87.9340,24.0,28.8,11111222
Shell,ioos:station:wmo:42400:2,2022-08-02T04:16:00Z,28.5740,-87.9340,24.0,28.7,11111222
Shell,ioos:station:wmo:42400:2,2022-08-02T04:26:00Z,28.5740,-87.9340,24.0,28.6,11111222
Shell,ioos:station:wmo:42400:2,2022-08-02T04:36:00Z,28.5740,-87.9340,24.0,28.5,11111222
Shell,ioos:station:wmo:42400:2,2022-08-02T04:46:00Z,28.5740,-87.9340,24.0,28.5,11111222
Shell,ioos:station:wmo:42400:2,2022-08-02T04:57:00Z,28.5740,-87.9340,24.0,28.4,11111222
Shell,ioos:station:wmo:42400:2,2022-08-02T05:07:00Z,28.5740,-87.9340,24.0,28.6,11111222
Shell,ioos:station:wmo:42400:2,2022-08-02T05:17:00Z,28.5740,-87.9340,24.0,28.9,11111222
Shell,ioos:station:wmo:42400:2,2022-08-02T05:27:00Z,28.5740,-87.9340,24.0,29.1,11111222
Shell,ioos:station:wmo:42400:2,2022-08-02T05:37:00Z,28.5740,-87.9340,24.0,29.1,11111222
Shell,ioos:station:wmo:42400:2,2022-08-02T05:47:00Z,28.5740,-87.9340,24.0,29.0,11111222
Shell,ioos:station:wmo:42400:2,2022-08-02T05:57:00Z,28.5740,-87.9340,24.0,29.0,11111222
Shell,ioos:station:wmo:42400:2,2022-08-02T06:07:00Z,28.5740,-87.9340,24.0,29.1,11111222
Shell,ioos:station:wmo:42400:2,2022-08-02T06:17:00Z,28.5740,-87.9340,24.0,29.1,11111222
Shell,ioos:station:wmo:42400:2,2022-08-02T06:27:00Z,28.5740,-87.9340,24.0,29.1,11111222
Shell,ioos:station:wmo:42400:2,2022-08-02T06:37:00Z,28.5740,-87.9340,24.0,29.3,11111222
Shell,ioos:station:wmo:42400:2,2022-08-02T06:47:00Z,28.5740,-87.9340,24.0,29.4,11111222
Shell,ioos:station:wmo:42400:2,2022-08-02T06:57:00Z,28.5740,-87.9340,24.0,29.4,11111222
Shell,ioos:station:wmo:42400:2,2022-08-02T07:07:00Z,28.5740,-87.9340,24.0,29.1,11111222
Shell,ioos:station:wmo:42400:2,2022-08-02T07:17:00Z,28.5740,-87.9340,24.0,28.8,11111222
Shell,ioos:station:wmo:42400:2,2022-08-02T07:27:00Z,28.5740,-87.9340,24.0,28.9,11111222
Shell,ioos:station:wmo:42400:2,2022-08-02T07:37:00Z,28.5740,-87.9340,24.0,28.9,11111222
Shell,ioos:station:wmo:42400:2,2022-08-02T07:47:00Z,28.5740,-87.9340,24.0,28.9,11111222
Shell,ioos:station:wmo:42400:2,2022-08-02T07:57:00Z,28.5740,-87.9340,24.0,29.2,11111222
Shell,ioos:station:wmo:42400:2,2022-08-02T08:07:00Z,28.5740,-87.9340,24.0,29.3,11111222
Shell,ioos:station:wmo:42400:2,2022-08-02T08:17:00Z,28.5740,-87.9340,24.0,29.3,11111222
Shell,ioos:station:wmo:42400:2,2022-08-02T08:27:00Z,28.5740,-87.9340,24.0,29.3,11111222
Shell,ioos:station:wmo:42400:2,2022-08-02T08:37:00Z,28.5740,-87.9340,24.0,29.6,11111222
Shell,ioos:station:wmo:42400:2,2022-08-02T08:47:00Z,28.5740,-87.9340,24.0,29.8,11111222
Shell,ioos:station:wmo:42400:2,2022-08-02T08:57:00Z,28.5740,-87.9340,24.0,30.1,11111222
Shell,ioos:station:wmo:42400:2,2022-08-02T09:07:00Z,28.5740,-87.9340,24.0,30.2,11111222
Shell,ioos:station:wmo:42400:2,2022-08-02T09:17:00Z,28.5740,-87.9340,24.0,30.2,11111222
Shell,ioos:station:wmo:42400:2,2022-08-02T09:27:00Z,28.5740,-87.9340,24.0,30.1,11111222
Shell,ioos:station:wmo:42400:2,2022-08-02T09:37:00Z,28.5740,-87.9340,24.0,30.1,11111222
Shell,ioos:station:wmo:42400:2,2022-08-02T09:47:00Z,28.5740,-87.9340,24.0,30.1,11111222
Shell,ioos:station:wmo:42400:2,2022-08-02T09:57:00Z,28.5740,-87.9340,24.0,30.0,11111222
Shell,ioos:station:wmo:42400:2,2022-08-02T10:07:00Z,28.5740,-87.9340,24.0,29.9,11111222
Shell,ioos:station:wmo:42400:2,2022-08-02T10:17:00Z,28.5740,-87.9340,24.0,29.9,11111222
Shell,ioos:station:wmo:42400:2,2022-08-02T10:27:00Z,28.5740,-87.9340,24.0,29.9,11111222
Shell,ioos:station:wmo:42400:2,2022-08-02T10:37:00Z,28.5740,-87.9340,24.0,29.8,11111222
Shell,ioos:station:wmo:42400:2,2022-08-02T10:47:00Z,28.5740,-87.9340,24.0,29.8,11111222
Shell,ioos:station:wmo:42400:2,2022-08-02T10:57:00Z,28.5740,-87.9340,24.0,29.7,11111222
Shell,ioos:station:wmo:42400:2,2022-08-02T11:07:00Z,28.5740,-87.9340,24.0,29.8,11111222
Shell,ioos:station:wmo:42400:2,2022-08-02T11:17:00Z,28.5740,-87.9340,24.0,29.8,11111222
Shell,ioos:station:wmo:42400:2,2022-08-02T11:27:00Z,28.5740,-87.9340,24.0,29.8,11111222
Shell,ioos:station:wmo:42400:2,2022-08-02T11:37:00Z,28.5740,-87.9340,24.0,29.8,11111222
Shell,ioos:station:wmo:42400:2,2022-08-02T11:47:00Z,28.5740,-87.9340,24.0,29.7,11111222
Shell,ioos:station:wmo:42400:2,2022-08-02T11:57:00Z,28.5740,-87.9340,24.0,29.6,11111222
Shell,ioos:station:wmo:42400:2,2022-08-02T12:07:00Z,28.5740,-87.9340,24.0,29.5,11111222
Shell,ioos:station:wmo:42400:2,2022-08-02T12:18:00Z,28.5740,-87.9340,24.0,29.6,11111222
Shell,ioos:station:wmo:42400:2,2022-08-02T12:28:00Z,28.5740,-87.9340,24.0,29.6,11111222
Shell,ioos:station:wmo:42400:2,2022-08-02T12:38:00Z,28.5740,-87.9340,24.0,29.8,11111222
Shell,ioos:station:wmo:42400:2,2022-08-02T12:48:00Z,28.5740,-87.9340,24.0,29.8,11111222
Shell,ioos:station:wmo:42400:2,2022-08-02T12:58:00Z,28.5740,-87.9340,24.0,29.9,11111222
Shell,ioos:station:wmo:42400:2,2022-08-02T13:08:00Z,28.5740,-87.9340,24.0,29.9,11111222
Shell,ioos:station:wmo:42400:2,2022-08-02T13:18:00Z,28.5740,-87.9340,24.0,30.0,11111222
Shell,ioos:station:wmo:42400:2,2022-08-02T13:28:00Z,28.5740,-87.9340,24.0,30.0,11111222
Shell,ioos:station:wmo:42400:2,2022-08-02T13:38:00Z,28.5740,-87.9340,24.0,30.0,11111222
Shell,ioos:station:wmo:42400:2,2022-08-02T13:48:00Z,28.5740,-87.9340,24.0,30.0,11111222
Shell,ioos:station:wmo:42400:2,2022-08-02T13:58:00Z,28.5740,-87.9340,24.0,29.9,11111222
Shell,ioos:station:wmo:42400:2,2022-08-02T14:08:00Z,28.5740,-87.9340,24.0,29.9,11111222
Shell,ioos:station:wmo:42400:2,2022-08-02T14:18:00Z,28.5740,-87.9340,24.0,30.1,11111222
Shell,ioos:station:wmo:42400:2,2022-08-02T14:28:00Z,28.5740,-87.9340,24.0,30.1,11111222
Shell,ioos:station:wmo:42400:2,2022-08-02T14:38:00Z,28.5740,-87.9340,24.0,30.0,11111222
Shell,ioos:station:wmo:42400:2,2022-08-02T14:48:00Z,28.5740,-87.9340,24.0,29.9,11111222
Shell,ioos:station:wmo:42400:2,2022-08-02T14:58:00Z,28.5740,-87.9340,24.0,29.9,11111222
Shell,ioos:station:wmo:42400:2,2022-08-02T15:08:00Z,28.5740,-87.9340,24.0,29.8,11111222
Shell,ioos:station:wmo:42400:2,2022-08-02T15:18:00Z,28.5740,-87.9340,24.0,29.8,11111222
Shell,ioos:station:wmo:42400:2,2022-08-02T15:28:00Z,28.5740,-87.9340,24.0,29.9,11111222
Shell,ioos:station:wmo:42400:2,2022-08-02T15:38:00Z,28.5740,-87.9340,24.0,30.0,11111222
Shell,ioos:station:wmo:42400:2,2022-08-02T15:48:00Z,28.5740,-87.9340,24.0,30.1,11111222
Shell,ioos:station:wmo:42400:2,2022-08-02T15:58:00Z,28.5740,-87.9340,24.0,30.1,11111222
Shell,ioos:station:wmo:42400:2,2022-08-02T16:08:00Z,28.5740,-87.9340,24.0,30.1,11111222
Shell,ioos:station:wmo:42400:2,2022-08-02T16:18:00Z,28.5740,-87.9340,24.0,30.1,11111222
Shell,ioos:station:wmo:42400:2,2022-08-02T16:28:00Z,28.5740,-87.9340,24.0,30.1,11111222
Shell,ioos:station:wmo:42400:2,2022-08-02T16:38:00Z,28.5740,-87.9340,24.0,30.3,11111222
Shell,ioos:station:wmo:42400:2,2022-08-02T16:48:00Z,28.5740,-87.9340,24.0,30.3,11111222
Shell,ioos:station:wmo:42400:2,2022-08-02T16:58:00Z,28.5740,-87.9340,24.0,30.3,11111222
Shell,ioos:station:wmo:42400:2,2022-08-02T17:08:00Z,28.5740,-87.9340,24.0,30.3,11111222
Shell,ioos:station:wmo:42400:2,2022-08-02T17:18:00Z,28.5740,-87.9340,24.0,30.2,11111222
Shell,ioos:station:wmo:42400:2,2022-08-02T17:28:00Z,28.5740,-87.9340,24.0,30.2,11111222
Shell,ioos:station:wmo:42400:2,2022-08-02T17:38:00Z,28.5740,-87.9340,24.0,30.2,11111222
Shell,ioos:station:wmo:42400:2,2022-08-02T17:48:00Z,28.5740,-87.9340,24.0,30.2,11111222
Shell,ioos:station:wmo:42400:2,2022-08-02T17:58:00Z,28.5740,-87.9340,24.0,30.2,11111222
Shell,ioos:station:wmo:42400:2,2022-08-02T18:08:00Z,28.5740,-87.9340,24.0,30.2,11111222
Shell,ioos:station:wmo:42400:2,2022-08-02T18:18:00Z,28.5740,-87.9340,24.0,30.2,11111222
Shell,ioos:station:wmo:42400:2,2022-08-02T18:28:00Z,28.5740,-87.9340,24.0,30.2,11111222
Shell,ioos:station:wmo:42400:2,2022-08-02T18:38:00Z,28.5740,-87.9340,24.0,30.2,11111222
Shell,ioos:station:wmo:42400:2,2022-08-02T18:48:00Z,28.5740,-87.9340,24.0,30.2,11111222
Shell,ioos:station:wmo:42400:2,2022-08-02T18:58:00Z,28.5740,-87.9340,24.0,30.1,11111222
Shell,ioos:station:wmo:42400:2,2022-08-02T19:08:00Z,28.5740,-87.9340,24.0,30.0,11111222
Shell,ioos:station:wmo:42400:2,2022-08-02T19:18:00Z,28.5740,-87.9340,24.0,30.0,11111222
Shell,ioos:station:wmo:42400:2,2022-08-02T19:28:00Z,28.5740,-87.9340,24.0,29.9,11111222
Shell,ioos:station:wmo:42400:2,2022-08-02T19:39:00Z,28.5740,-87.9340,24.0,29.9,11111222
Shell,ioos:station:wmo:42400:2,2022-08-02T19:49:00Z,28.5740,-87.9340,24.0,29.9,11111222
Shell,ioos:station:wmo:42400:2,2022-08-02T19:59:00Z,28.5740,-87.9340,24.0,29.9,11111222
Shell,ioos:station:wmo:42400:2,2022-08-02T20:09:00Z,28.5740,-87.9340,24.0,29.9,11111222
Shell,ioos:station:wmo:42400:2,2022-08-02T20:19:00Z,28.5740,-87.9340,24.0,30.0,11111222
Shell,ioos:station:wmo:42400:2,2022-08-02T20:29:00Z,28.5740,-87.9340,24.0,30.0,11111222
Shell,ioos:station:wmo:42400:2,2022-08-02T20:39:00Z,28.5740,-87.9340,24.0,29.9,11111222